Grand Forks, ND

12:09 AM CDT on May 01, 2017 (GMT -0500)
Grand Forks International

Weather History for KGFK - June, 2013

Change the Weather History Date:

Thursday, June 20, 2013

  Actual Average Record
Temperature  
Mean Temperature 73 °F 65 °F  
Max Temperature 81 °F 77 °F 96 °F (1995)
Min Temperature 65 °F 54 °F 30 °F (1969)
Degree Days  
Heating Degree Days 0 3  
Month to date heating degree days 77 85  
Since 1 June heating degree days 77 85  
Since 1 July heating degree days 9965 9497  
Cooling Degree Days 8 3  
Month to date cooling degree days 38 40  
Year to date cooling degree days 47 57  
Since 1 June cooling degree days 38 40  
Growing Degree Days 22 (Base 50)    
Moisture  
Dew Point 61 °F    
Average Humidity 71    
Maximum Humidity 87    
Minimum Humidity 54    
Precipitation  
Precipitation 0.07 in 0.13 in 1.29 in (1953)
Month to date precipitation 2.42 2.24  
Year to date precipitation 10.59 7.96  
Snow  
Snow 0.00 in 0.00 in - ()
Month to date snowfall 0.0 0.0  
Since 1 June snowfall 0.0 0.0  
Since 1 July snowfall 50.2 47.4  
Snow Depth 0.00 in    
Sea Level Pressure  
Sea Level Pressure 29.84 in    
Wind  
Wind Speed 9 mph (SE)    
Max Wind Speed 21 mph    
Max Gust Speed 25 mph    
Visibility 10 miles    
Events Rain , Thunderstorm    
T = Trace of Precipitation, MM = Missing Value Source: NWS Daily Summary

Daily Weather History Graph

Daily Weather History Graph

Search for Another Location

Airport or City:

Trip Planner

Search our weather history database for the weather conditions in past years. The results will help you decide how hot, cold, wet, or windy it might be!

Date:

Astronomy

Jun. 20, 2013 Rise Set
Actual Time 5:29 AM CDT 9:31 PM CDT
Civil Twilight 4:47 AM CDT 10:12 PM CDT
Nautical Twilight 3:50 AM CDT 11:10 PM CDT
Astronomical Twilight 2:12 AM CDT 12:48 AM CDT
Moon 6:27 PM CDT (6/20) 3:07 AM CDT (6/20)
Length of Visible Light 17h 24m
Length of Day
16h 02m
Waxing Gibbous, 89% of the Moon is Illuminated
Jun 20
Waxing Gibbous
Jun 23
Full
Jun 29
Last Quarter
Jul 8
New
Jul 15
First Quarter

Hourly Weather History & Observations

Time (CDT) Temp. Dew Point Humidity Pressure Visibility Wind Dir Wind Speed Gust Speed Precip Events Conditions
12:53 AM 70.0 °F 55.9 °F 61% 29.83 in 10.0 mi ENE 10.4 mph - N/A   Clear
1:53 AM 68.0 °F 57.0 °F 68% 29.82 in 10.0 mi East 9.2 mph - N/A   Clear
2:53 AM 69.1 °F 57.0 °F 65% 29.81 in 10.0 mi East 8.1 mph - N/A   Clear
3:53 AM 69.1 °F 57.9 °F 68% 29.81 in 10.0 mi SE 9.2 mph - N/A   Clear
4:53 AM 66.9 °F 59.0 °F 76% 29.81 in 10.0 mi East 3.5 mph - N/A   Clear
5:53 AM 66.9 °F 60.1 °F 79% 29.79 in 10.0 mi SE 9.2 mph - N/A   Overcast
6:53 AM 68.0 °F 61.0 °F 78% 29.80 in 10.0 mi ESE 5.8 mph - N/A   Overcast
7:53 AM 70.0 °F 62.1 °F 76% 29.85 in 10.0 mi SE 9.2 mph - N/A   Overcast
8:53 AM 73.0 °F 59.0 °F 61% 29.86 in 10.0 mi SE 13.8 mph - N/A   Overcast
9:53 AM 75.0 °F 60.1 °F 60% 29.85 in 10.0 mi ESE 10.4 mph - N/A   Overcast
10:53 AM 77.0 °F 60.1 °F 56% 29.84 in 10.0 mi East 10.4 mph - N/A   Overcast
11:53 AM 78.1 °F 61.0 °F 56% 29.87 in 10.0 mi ESE 11.5 mph - N/A   Overcast
12:53 PM 77.0 °F 59.0 °F 54% 29.85 in 10.0 mi ESE 6.9 mph - N/A   Overcast
1:53 PM 78.1 °F 60.1 °F 54% 29.90 in 10.0 mi South 4.6 mph - N/A   Overcast
2:14 PM 78.8 °F 59.0 °F 51% 29.90 in 10.0 mi Calm Calm - N/A Thunderstorm Thunderstorm
2:53 PM 79.0 °F 61.0 °F 54% 29.82 in 10.0 mi East 12.7 mph - 0.00 in Rain Light Rain
3:53 PM 75.9 °F 63.0 °F 64% 29.87 in 9.0 mi South 4.6 mph - 0.00 in Rain Light Rain
4:19 PM 71.6 °F 64.4 °F 78% 29.88 in 10.0 mi WSW 5.8 mph - 0.02 in Rain , Thunderstorm Light Thunderstorms and Rain
4:53 PM 70.0 °F 64.9 °F 84% 29.88 in 10.0 mi SW 11.5 mph - 0.02 in Rain Light Rain
5:00 PM 69.8 °F 64.4 °F 83% 29.87 in 10.0 mi SE 9.2 mph - 0.00 in Rain Light Rain
5:53 PM 69.1 °F 64.9 °F 87% 29.83 in 10.0 mi SE 10.4 mph - 0.00 in   Overcast
6:53 PM 66.9 °F 62.1 °F 84% 29.82 in 10.0 mi South 12.7 mph - N/A   Overcast
7:50 PM 66.2 °F 60.8 °F 83% 29.83 in 10.0 mi South 9.2 mph - 0.00 in Thunderstorm Thunderstorm
7:53 PM 66.9 °F 61.0 °F 81% 29.83 in 10.0 mi SSE 8.1 mph - 0.00 in Thunderstorm Thunderstorm
8:53 PM 66.0 °F 61.0 °F 84% 29.82 in 10.0 mi ESE 8.1 mph - 0.05 in Rain Light Rain
9:16 PM 66.2 °F 60.8 °F 83% 29.80 in 10.0 mi SE 16.1 mph - 0.00 in Rain Light Rain
9:53 PM 66.9 °F 61.0 °F 81% 29.80 in 10.0 mi North 5.8 mph - 0.00 in   Overcast
10:53 PM 66.0 °F 61.0 °F 84% 29.80 in 10.0 mi NE 9.2 mph 21.9 mph N/A   Overcast
11:53 PM 66.0 °F 63.0 °F 90% 29.78 in 10.0 mi NE 11.5 mph - N/A   Clear